Tracking 35274 objects as of 10-Sep-2026
HD Live streaming from Space Station
objects crossing your sky now

STARLINK-3530


STARLINK-3530 is no longer on orbit
STARLINK-3530 is classified as:


NORAD ID: 51730
Int'l Code: 2022-016S
Launch date: February 21, 2022
Source: United States (US)
Launch site: AIR FORCE EASTERN TEST RANGE (AFETR)
Decay date: 2024-12-28
Your satellite tracking list
Your tracking list is empty




NASA's NSSDC Master Catalog

Two Line Element Set (TLE):
1 51730U 22016S   24362.77317108  .15332041  12593-4  31033-3 0  9994
2 51730  53.2029  98.2209 0003014   5.6877 136.3221 16.47000520158973
Source of the keplerian elements: AFSPC